Year,Month,Day,Hour,Minute,Value (Times are PST for temperature in C)
2011,11,20,00,00,-4.60
2011,11,20,00,01,-4.70
2011,11,20,00,02,-4.70
2011,11,20,00,03,-4.70
2011,11,20,00,04,-4.70
2011,11,20,00,05,-4.70
2011,11,20,00,06,-4.70
2011,11,20,00,07,-4.70
2011,11,20,00,08,-4.70
2011,11,20,00,09,-4.70
2011,11,20,00,10,-4.70
2011,11,20,00,11,-4.70
2011,11,20,00,12,-4.70
2011,11,20,00,13,-4.70
2011,11,20,00,14,-4.70
2011,11,20,00,15,-4.70
2011,11,20,00,16,-4.70
2011,11,20,00,17,-4.70
2011,11,20,00,18,-4.70
2011,11,20,00,19,-4.70
2011,11,20,00,20,-4.70
2011,11,20,00,21,-4.70
2011,11,20,00,22,-4.70
2011,11,20,00,23,-4.70
2011,11,20,00,24,-4.70
2011,11,20,00,25,-4.70
2011,11,20,00,26,-4.70
2011,11,20,00,27,-4.70
2011,11,20,00,28,-4.70
2011,11,20,00,29,-4.70
2011,11,20,00,30,-4.70
2011,11,20,00,31,-4.70
2011,11,20,00,32,-4.70
2011,11,20,00,33,-4.70
2011,11,20,00,34,-4.70
2011,11,20,00,35,-4.70
2011,11,20,00,36,-4.80
2011,11,20,00,37,-4.80
2011,11,20,00,38,-4.80
2011,11,20,00,39,-4.80
2011,11,20,00,40,-4.80
2011,11,20,00,41,-4.80
2011,11,20,00,42,-4.80
2011,11,20,00,43,-4.80
2011,11,20,00,44,-4.90
2011,11,20,00,45,-4.90
2011,11,20,00,46,-4.90
2011,11,20,00,47,-4.90
2011,11,20,00,48,-4.90
2011,11,20,00,49,-4.90
2011,11,20,00,50,-4.90
2011,11,20,00,51,-4.90
2011,11,20,00,52,-4.90
2011,11,20,00,53,-4.90
2011,11,20,00,54,-4.90
2011,11,20,00,55,-4.90
2011,11,20,00,56,-4.90
2011,11,20,00,57,-4.90
2011,11,20,00,58,-4.90
2011,11,20,00,59,-4.90
2011,11,20,01,00,-4.90
2011,11,20,01,01,-4.90
2011,11,20,01,02,-4.90
2011,11,20,01,03,-4.90
2011,11,20,01,04,-4.90
2011,11,20,01,05,-4.90
2011,11,20,01,06,-4.90
2011,11,20,01,07,-4.90
2011,11,20,01,08,-4.90
2011,11,20,01,09,-4.90
2011,11,20,01,10,-4.90
2011,11,20,01,11,-4.90
2011,11,20,01,12,-4.90
2011,11,20,01,13,-4.90
2011,11,20,01,14,-4.90
2011,11,20,01,15,-4.90
2011,11,20,01,16,-4.90
2011,11,20,01,17,-4.90
2011,11,20,01,18,-4.90
2011,11,20,01,19,-4.90
2011,11,20,01,20,-4.90
2011,11,20,01,21,-4.90
2011,11,20,01,22,-4.90
2011,11,20,01,23,-4.90
2011,11,20,01,24,-5.00
2011,11,20,01,25,-5.00
2011,11,20,01,26,-5.00
2011,11,20,01,27,-5.00
2011,11,20,01,28,-5.00
2011,11,20,01,29,-5.00
2011,11,20,01,30,-5.00
2011,11,20,01,31,-5.00
2011,11,20,01,32,-5.10
2011,11,20,01,33,-5.10
2011,11,20,01,34,-5.10
2011,11,20,01,35,-5.10
2011,11,20,01,36,-5.10
2011,11,20,01,37,-5.10
2011,11,20,01,38,-5.10
2011,11,20,01,39,-5.10
2011,11,20,01,40,-5.10
2011,11,20,01,41,-5.10
2011,11,20,01,42,-5.10
2011,11,20,01,43,-5.10
2011,11,20,01,44,-5.10
2011,11,20,01,45,-5.10
2011,11,20,01,46,-5.10
2011,11,20,01,47,-5.20
2011,11,20,01,48,-5.20
2011,11,20,01,49,-5.20
2011,11,20,01,50,-5.20
2011,11,20,01,51,-5.20
2011,11,20,01,52,-5.20
2011,11,20,01,53,-5.20
2011,11,20,01,54,-5.20
2011,11,20,01,55,-5.20
2011,11,20,01,56,-5.20
2011,11,20,01,57,-5.20
2011,11,20,01,58,-5.20
2011,11,20,01,59,-5.20
2011,11,20,02,00,-5.20
2011,11,20,02,01,-5.20
2011,11,20,02,02,-5.20
2011,11,20,02,03,-5.20
2011,11,20,02,04,-5.20
2011,11,20,02,05,-5.20
2011,11,20,02,06,-5.20
2011,11,20,02,07,-5.20
2011,11,20,02,08,-5.20
2011,11,20,02,09,-5.20
2011,11,20,02,10,-5.20
2011,11,20,02,11,-5.20
2011,11,20,02,12,-5.20
2011,11,20,02,13,-5.20
2011,11,20,02,14,-5.20
2011,11,20,02,15,-5.20
2011,11,20,02,16,-5.20
2011,11,20,02,17,-5.20
2011,11,20,02,18,-5.20
2011,11,20,02,19,-5.20
2011,11,20,02,20,-5.20
2011,11,20,02,21,-5.20
2011,11,20,02,22,-5.20
2011,11,20,02,23,-5.20
2011,11,20,02,24,-5.30
2011,11,20,02,25,-5.30
2011,11,20,02,26,-5.30
2011,11,20,02,27,-5.20
2011,11,20,02,28,-5.30
2011,11,20,02,29,-5.30
2011,11,20,02,30,-5.20
2011,11,20,02,31,-5.30
2011,11,20,02,32,-5.30
2011,11,20,02,33,-5.30
2011,11,20,02,34,-5.30
2011,11,20,02,35,-5.30
2011,11,20,02,36,-5.30
2011,11,20,02,37,-5.30
2011,11,20,02,38,-5.30
2011,11,20,02,39,-5.30
2011,11,20,02,40,-5.30
2011,11,20,02,41,-5.30
2011,11,20,02,42,-5.30
2011,11,20,02,43,-5.30
2011,11,20,02,44,-5.30
2011,11,20,02,45,-5.30
2011,11,20,02,46,-5.30
2011,11,20,02,47,-5.30
2011,11,20,02,48,-5.30
2011,11,20,02,49,-5.30
2011,11,20,02,50,-5.30
2011,11,20,02,51,-5.30
2011,11,20,02,52,-5.30
2011,11,20,02,53,-5.30
2011,11,20,02,54,-5.30
2011,11,20,02,55,-5.30
2011,11,20,02,56,-5.30
2011,11,20,02,57,-5.30
2011,11,20,02,58,-5.30
2011,11,20,02,59,-5.30
2011,11,20,03,00,-5.30
2011,11,20,03,01,-5.30
2011,11,20,03,02,-5.30
2011,11,20,03,03,-5.30
2011,11,20,03,04,-5.30
2011,11,20,03,05,-5.30
2011,11,20,03,06,-5.30
2011,11,20,03,07,-5.30
2011,11,20,03,08,-5.30
2011,11,20,03,09,-5.30
2011,11,20,03,10,-5.40
2011,11,20,03,11,-5.40
2011,11,20,03,12,-5.40
2011,11,20,03,13,-5.40
2011,11,20,03,14,-5.40
2011,11,20,03,15,-5.40
2011,11,20,03,16,-5.40
2011,11,20,03,17,-5.40
2011,11,20,03,18,-5.40
2011,11,20,03,19,-5.40
2011,11,20,03,20,-5.40
2011,11,20,03,21,-5.40
2011,11,20,03,22,-5.40
2011,11,20,03,23,-5.40
2011,11,20,03,24,-5.40
2011,11,20,03,25,-5.40
2011,11,20,03,26,-5.40
2011,11,20,03,27,-5.40
2011,11,20,03,28,-5.40
2011,11,20,03,29,-5.40
2011,11,20,03,30,-5.40
2011,11,20,03,31,-5.40
2011,11,20,03,32,-5.40
2011,11,20,03,33,-5.40
2011,11,20,03,34,-5.40
2011,11,20,03,35,-5.50
2011,11,20,03,36,-5.50
2011,11,20,03,37,-5.50
2011,11,20,03,38,-5.50
2011,11,20,03,39,-5.50
2011,11,20,03,40,-5.50
2011,11,20,03,41,-5.50
2011,11,20,03,42,-5.50
2011,11,20,03,43,-5.50
2011,11,20,03,44,-5.50
2011,11,20,03,45,-5.50
2011,11,20,03,46,-5.50
2011,11,20,03,47,-5.50
2011,11,20,03,48,-5.50
2011,11,20,03,49,-5.50
2011,11,20,03,50,-5.50
2011,11,20,03,51,-5.50
2011,11,20,03,52,-5.50
2011,11,20,03,53,-5.50
2011,11,20,03,54,-5.60
2011,11,20,03,55,-5.60
2011,11,20,03,56,-5.60
2011,11,20,03,57,-5.60
2011,11,20,03,58,-5.60
2011,11,20,03,59,-5.60
2011,11,20,04,00,-5.60
2011,11,20,04,01,-5.60
2011,11,20,04,02,-5.60
2011,11,20,04,03,-5.60
2011,11,20,04,04,-5.60
2011,11,20,04,05,-5.60
2011,11,20,04,06,-5.60
2011,11,20,04,07,-5.60
2011,11,20,04,08,-5.50
2011,11,20,04,09,-5.50
2011,11,20,04,10,-5.50
2011,11,20,04,11,-5.50
2011,11,20,04,12,-5.50
2011,11,20,04,13,-5.50
2011,11,20,04,14,-5.50
2011,11,20,04,15,-5.50
2011,11,20,04,16,-5.50
2011,11,20,04,17,-5.50
2011,11,20,04,18,-5.50
2011,11,20,04,19,-5.50
2011,11,20,04,20,-5.50
2011,11,20,04,21,-5.50
2011,11,20,04,22,-5.50
2011,11,20,04,23,-5.50
2011,11,20,04,24,-5.60
2011,11,20,04,25,-5.50
2011,11,20,04,26,-5.50
2011,11,20,04,27,-5.50
2011,11,20,04,28,-5.50
2011,11,20,04,29,-5.50
2011,11,20,04,30,-5.50
2011,11,20,04,31,-5.50
2011,11,20,04,32,-5.50
2011,11,20,04,33,-5.50
2011,11,20,04,34,-5.50
2011,11,20,04,35,-5.50
2011,11,20,04,36,-5.50
2011,11,20,04,37,-5.50
2011,11,20,04,38,-5.50
2011,11,20,04,39,-5.50
2011,11,20,04,40,-5.50
2011,11,20,04,41,-5.50
2011,11,20,04,42,-5.50
2011,11,20,04,43,-5.50
2011,11,20,04,44,-5.50
2011,11,20,04,45,-5.50
2011,11,20,04,46,-5.50
2011,11,20,04,47,-5.50
2011,11,20,04,48,-5.50
2011,11,20,04,49,-5.50
2011,11,20,04,50,-5.50
2011,11,20,04,51,-5.50
2011,11,20,04,52,-5.50
2011,11,20,04,53,-5.50
2011,11,20,04,54,-5.60
2011,11,20,04,55,-5.60
2011,11,20,04,56,-5.60
2011,11,20,04,57,-5.60
2011,11,20,04,58,-5.60
2011,11,20,04,59,-5.60
2011,11,20,05,00,-5.60
2011,11,20,05,01,-5.60
2011,11,20,05,02,-5.60
2011,11,20,05,03,-5.60
2011,11,20,05,04,-5.60
2011,11,20,05,05,-5.60
2011,11,20,05,06,-5.60
2011,11,20,05,07,-5.60
2011,11,20,05,08,-5.60
2011,11,20,05,09,-5.60
2011,11,20,05,10,-5.60
2011,11,20,05,11,-5.60
2011,11,20,05,12,-5.60
2011,11,20,05,13,-5.60
2011,11,20,05,14,-5.60
2011,11,20,05,15,-5.60
2011,11,20,05,16,-5.60
2011,11,20,05,17,-5.60
2011,11,20,05,18,-5.60
2011,11,20,05,19,-5.60
2011,11,20,05,20,-5.60
2011,11,20,05,21,-5.60
2011,11,20,05,22,-5.60
2011,11,20,05,23,-5.60
2011,11,20,05,24,-5.60
2011,11,20,05,25,-5.60
2011,11,20,05,26,-5.60
2011,11,20,05,27,-5.60
2011,11,20,05,28,-5.60
2011,11,20,05,29,-5.60
2011,11,20,05,30,-5.60
2011,11,20,05,31,-5.60
2011,11,20,05,32,-5.60
2011,11,20,05,33,-5.60
2011,11,20,05,34,-5.60
2011,11,20,05,35,-5.60
2011,11,20,05,36,-5.60
2011,11,20,05,37,-5.60
2011,11,20,05,38,-5.60
2011,11,20,05,39,-5.60
2011,11,20,05,40,-5.70
2011,11,20,05,41,-5.70
2011,11,20,05,42,-5.70
2011,11,20,05,43,-5.70
2011,11,20,05,44,-5.70
2011,11,20,05,45,-5.70
2011,11,20,05,46,-5.70
2011,11,20,05,47,-5.70
2011,11,20,05,48,-5.70
2011,11,20,05,49,-5.70
2011,11,20,05,50,-5.70
2011,11,20,05,51,-5.70
2011,11,20,05,52,-5.70
2011,11,20,05,53,-5.70
2011,11,20,05,54,-5.70
2011,11,20,05,55,-5.70
2011,11,20,05,56,-5.70
2011,11,20,05,57,-5.70
2011,11,20,05,58,-5.60
2011,11,20,05,59,-5.60
2011,11,20,06,00,-5.60
2011,11,20,06,01,-5.60
2011,11,20,06,02,-5.60
2011,11,20,06,03,-5.60
2011,11,20,06,04,-5.50
2011,11,20,06,05,-5.40
2011,11,20,06,06,-5.30
2011,11,20,06,07,-5.30
2011,11,20,06,08,-5.30
2011,11,20,06,09,-5.20
2011,11,20,06,10,-5.20
2011,11,20,06,11,-5.10
2011,11,20,06,12,-5.10
2011,11,20,06,13,-5.10
2011,11,20,06,14,-5.00
2011,11,20,06,15,-5.00
2011,11,20,06,16,-5.00
2011,11,20,06,17,-4.90
2011,11,20,06,18,-4.90
2011,11,20,06,19,-4.90
2011,11,20,06,20,-4.90
2011,11,20,06,21,-4.90
2011,11,20,06,22,-4.80
2011,11,20,06,23,-4.80
2011,11,20,06,24,-4.70
2011,11,20,06,25,-4.70
2011,11,20,06,26,-4.60
2011,11,20,06,27,-4.60
2011,11,20,06,28,-4.60
2011,11,20,06,29,-4.60
2011,11,20,06,30,-4.60
2011,11,20,06,31,-4.60
2011,11,20,06,32,-4.60
2011,11,20,06,33,-4.60
2011,11,20,06,34,-4.60
2011,11,20,06,35,-4.60
2011,11,20,06,36,-4.60
2011,11,20,06,37,-4.50
2011,11,20,06,38,-4.50
2011,11,20,06,39,-4.50
2011,11,20,06,40,-4.50
2011,11,20,06,41,-4.50
2011,11,20,06,42,-4.50
2011,11,20,06,43,-4.50
2011,11,20,06,44,-4.50
2011,11,20,06,45,-4.50
2011,11,20,06,46,-4.60
2011,11,20,06,47,-4.60
2011,11,20,06,48,-4.60
2011,11,20,06,49,-4.60
2011,11,20,06,50,-4.60
2011,11,20,06,51,-4.60
2011,11,20,06,52,-4.60
2011,11,20,06,53,-4.60
2011,11,20,06,54,-4.60
2011,11,20,06,55,-4.60
2011,11,20,06,56,-4.70
2011,11,20,06,57,-4.70
2011,11,20,06,58,-4.70
2011,11,20,06,59,-4.70
2011,11,20,07,00,-4.70
2011,11,20,07,01,-4.60
2011,11,20,07,02,-4.60
2011,11,20,07,03,-4.50
2011,11,20,07,04,-4.40
2011,11,20,07,05,-4.40
2011,11,20,07,06,-4.30
2011,11,20,07,07,-4.30
2011,11,20,07,08,-4.20
2011,11,20,07,09,-4.20
2011,11,20,07,10,-4.10
2011,11,20,07,11,-4.00
2011,11,20,07,12,-4.00
2011,11,20,07,13,-3.90
2011,11,20,07,14,-3.80
2011,11,20,07,15,-3.80
2011,11,20,07,16,-3.70
2011,11,20,07,17,-3.70
2011,11,20,07,18,-3.60
2011,11,20,07,19,-3.60
2011,11,20,07,20,-3.50
2011,11,20,07,21,-3.50
2011,11,20,07,22,-3.40
2011,11,20,07,23,-3.30
2011,11,20,07,24,-3.30
2011,11,20,07,25,-3.30
2011,11,20,07,26,-3.30
2011,11,20,07,27,-3.30
2011,11,20,07,28,-3.20
2011,11,20,07,29,-3.20
2011,11,20,07,30,-3.20
2011,11,20,07,31,-3.20
2011,11,20,07,32,-3.30
2011,11,20,07,33,-3.30
2011,11,20,07,34,-3.20
2011,11,20,07,35,-3.20
2011,11,20,07,36,-3.20
2011,11,20,07,37,-3.20
2011,11,20,07,38,-3.20
2011,11,20,07,39,-3.20
2011,11,20,07,40,-3.20
2011,11,20,07,41,-3.20
2011,11,20,07,42,-3.20
2011,11,20,07,43,-3.20
2011,11,20,07,44,-3.10
2011,11,20,07,45,-3.10
2011,11,20,07,46,-3.10
2011,11,20,07,47,-3.10
2011,11,20,07,48,-3.10
2011,11,20,07,49,-3.00
2011,11,20,07,50,-3.00
2011,11,20,07,51,-3.00
2011,11,20,07,52,-3.00
2011,11,20,07,53,-2.90
2011,11,20,07,54,-2.90
2011,11,20,07,55,-2.90
2011,11,20,07,56,-2.90
2011,11,20,07,57,-2.90
2011,11,20,07,58,-2.90
2011,11,20,07,59,-2.80
2011,11,20,08,00,-2.80
2011,11,20,08,01,-2.80
2011,11,20,08,02,-2.80
2011,11,20,08,03,-2.80
2011,11,20,08,04,-2.80
2011,11,20,08,05,-2.80
2011,11,20,08,06,-2.70
2011,11,20,08,07,-2.70
2011,11,20,08,08,-2.70
2011,11,20,08,09,-2.70
2011,11,20,08,10,-2.70
2011,11,20,08,11,-2.70
2011,11,20,08,12,-2.70
2011,11,20,08,13,-2.70
2011,11,20,08,14,-2.70
2011,11,20,08,15,-2.70
2011,11,20,08,16,-2.70
2011,11,20,08,17,-2.70
2011,11,20,08,18,-2.70
2011,11,20,08,19,-2.70
2011,11,20,08,20,-2.70
2011,11,20,08,21,-2.70
2011,11,20,08,22,-2.70
2011,11,20,08,23,-2.70
2011,11,20,08,24,-2.60
2011,11,20,08,25,-2.60
2011,11,20,08,26,-2.60
2011,11,20,08,27,-2.60
2011,11,20,08,28,-2.60
2011,11,20,08,29,-2.60
2011,11,20,08,30,-2.60
2011,11,20,08,31,-2.60
2011,11,20,08,32,-2.60
2011,11,20,08,33,-2.50
2011,11,20,08,34,-2.50
2011,11,20,08,35,-2.50
2011,11,20,08,36,-2.50
2011,11,20,08,37,-2.50
2011,11,20,08,38,-2.50
2011,11,20,08,39,-2.50
2011,11,20,08,40,-2.40
2011,11,20,08,41,-2.40
2011,11,20,08,42,-2.40
2011,11,20,08,43,-2.40
2011,11,20,08,44,-2.40
2011,11,20,08,45,-2.40
2011,11,20,08,46,-2.40
2011,11,20,08,47,-2.40
2011,11,20,08,48,-2.40
2011,11,20,08,49,-2.40
2011,11,20,08,50,-2.40
2011,11,20,08,51,-2.30
2011,11,20,08,52,-2.30
2011,11,20,08,53,-2.30
2011,11,20,08,54,-2.30
2011,11,20,08,55,-2.30
2011,11,20,08,56,-2.20
2011,11,20,08,57,-2.20
2011,11,20,08,58,-2.20
2011,11,20,08,59,-2.20
2011,11,20,09,00,-2.20
2011,11,20,09,01,-2.10
2011,11,20,09,02,-2.10
2011,11,20,09,03,-2.10
2011,11,20,09,04,-2.10
2011,11,20,09,05,-2.10
2011,11,20,09,06,-2.00
2011,11,20,09,07,-2.00
2011,11,20,09,08,-1.90
2011,11,20,09,09,-1.90
2011,11,20,09,10,-1.90
2011,11,20,09,11,-1.90
2011,11,20,09,12,-1.80
2011,11,20,09,13,-1.80
2011,11,20,09,14,-1.80
2011,11,20,09,15,-1.80
2011,11,20,09,16,-1.80
2011,11,20,09,17,-1.80
2011,11,20,09,18,-1.70
2011,11,20,09,19,-1.70
2011,11,20,09,20,-1.70
2011,11,20,09,21,-1.70
2011,11,20,09,22,-1.70
2011,11,20,09,23,-1.70
2011,11,20,09,24,-1.70
2011,11,20,09,25,-1.60
2011,11,20,09,26,-1.60
2011,11,20,09,27,-1.60
2011,11,20,09,28,-1.60
2011,11,20,09,29,-1.60
2011,11,20,09,30,-1.60
2011,11,20,09,31,-1.60
2011,11,20,09,32,-1.60
2011,11,20,09,33,-1.50
2011,11,20,09,34,-1.50
2011,11,20,09,35,-1.50
2011,11,20,09,36,-1.40
2011,11,20,09,37,-1.40
2011,11,20,09,38,-1.40
2011,11,20,09,39,-1.40
2011,11,20,09,40,-1.40
2011,11,20,09,41,-1.40
2011,11,20,09,42,-1.30
2011,11,20,09,43,-1.30
2011,11,20,09,44,-1.30
2011,11,20,09,45,-1.30
2011,11,20,09,46,-1.30
2011,11,20,09,47,-1.30
2011,11,20,09,48,-1.20
2011,11,20,09,49,-1.20
2011,11,20,09,50,-1.20
2011,11,20,09,51,-1.20
2011,11,20,09,52,-1.20
2011,11,20,09,53,-1.20
2011,11,20,09,54,-1.20
2011,11,20,09,55,-1.20
2011,11,20,09,56,-1.20
2011,11,20,09,57,-1.10
2011,11,20,09,58,-1.10
2011,11,20,09,59,-1.10
2011,11,20,10,00,-1.10
2011,11,20,10,01,-1.10
2011,11,20,10,02,-1.10
2011,11,20,10,03,-1.10
2011,11,20,10,04,-1.10
2011,11,20,10,05,-1.00
2011,11,20,10,06,-1.00
2011,11,20,10,07,-1.00
2011,11,20,10,08,-1.00
2011,11,20,10,09,-1.00
2011,11,20,10,10,-0.90
2011,11,20,10,11,-0.90
2011,11,20,10,12,-0.90
2011,11,20,10,13,-0.90
2011,11,20,10,14,-0.90
2011,11,20,10,15,-0.90
2011,11,20,10,16,-0.90
2011,11,20,10,17,-0.90
2011,11,20,10,18,-0.90
2011,11,20,10,19,-0.90
2011,11,20,10,20,-0.90
2011,11,20,10,21,-0.90
2011,11,20,10,22,-0.90
2011,11,20,10,23,-0.90
2011,11,20,10,24,-0.80
2011,11,20,10,25,-0.80
2011,11,20,10,26,-0.80
2011,11,20,10,27,-0.80
2011,11,20,10,28,-0.80
2011,11,20,10,29,-0.80
2011,11,20,10,30,-0.80
2011,11,20,10,31,-0.80
2011,11,20,10,32,-0.80
2011,11,20,10,33,-0.80
2011,11,20,10,34,-0.80
2011,11,20,10,35,-0.70
2011,11,20,10,36,-0.70
2011,11,20,10,37,-0.70
2011,11,20,10,38,-0.70
2011,11,20,10,39,-0.70
2011,11,20,10,40,-0.70
2011,11,20,10,41,-0.70
2011,11,20,10,42,-0.70
2011,11,20,10,43,-0.70
2011,11,20,10,44,-0.70
2011,11,20,10,45,-0.70
2011,11,20,10,46,-0.70
2011,11,20,10,47,-0.70
2011,11,20,10,48,-0.70
2011,11,20,10,49,-0.70
2011,11,20,10,50,-0.70
2011,11,20,10,51,-0.70
2011,11,20,10,52,-0.70
2011,11,20,10,53,-0.70
2011,11,20,10,54,-0.70
2011,11,20,10,55,-0.70
2011,11,20,10,56,-0.70
2011,11,20,10,57,-0.70
2011,11,20,10,58,-0.70
2011,11,20,10,59,-0.60
2011,11,20,11,00,-0.60
2011,11,20,11,01,-0.60
2011,11,20,11,02,-0.60
2011,11,20,11,03,-0.60
2011,11,20,11,04,-0.60
2011,11,20,11,05,-0.60
2011,11,20,11,06,-0.60
2011,11,20,11,07,-0.60
2011,11,20,11,08,-0.60
2011,11,20,11,09,-0.60
2011,11,20,11,10,-0.50
2011,11,20,11,11,-0.50
2011,11,20,11,12,-0.50
2011,11,20,11,13,-0.50
2011,11,20,11,14,-0.50
2011,11,20,11,15,-0.50
2011,11,20,11,16,-0.50
2011,11,20,11,17,-0.50
2011,11,20,11,18,-0.50
2011,11,20,11,19,-0.40
2011,11,20,11,20,-0.40
2011,11,20,11,21,-0.40
2011,11,20,11,22,-0.40
2011,11,20,11,23,-0.40
2011,11,20,11,24,-0.40
2011,11,20,11,25,-0.40
2011,11,20,11,26,-0.40
2011,11,20,11,27,-0.40
2011,11,20,11,28,-0.30
2011,11,20,11,29,-0.30
2011,11,20,11,30,-0.30
2011,11,20,11,31,-0.30
2011,11,20,11,32,-0.30
2011,11,20,11,33,-0.30
2011,11,20,11,34,-0.30
2011,11,20,11,35,-0.30
2011,11,20,11,36,-0.20
2011,11,20,11,37,-0.20
2011,11,20,11,38,-0.20
2011,11,20,11,39,-0.20
2011,11,20,11,40,-0.20
2011,11,20,11,41,-0.10
2011,11,20,11,42,-0.10
2011,11,20,11,43,-0.10
2011,11,20,11,44,0.00
2011,11,20,11,45,0.00
2011,11,20,11,46,0.00
2011,11,20,11,47,0.00
2011,11,20,11,48,-0.10
2011,11,20,11,49,-0.10
2011,11,20,11,50,-0.10
2011,11,20,11,51,-0.10
2011,11,20,11,52,-0.10
2011,11,20,11,53,-0.10
2011,11,20,11,54,-0.10
2011,11,20,11,55,-0.10
2011,11,20,11,56,-0.10
2011,11,20,11,57,0.00
2011,11,20,11,58,0.00
2011,11,20,11,59,0.00
2011,11,20,12,00,0.00
2011,11,20,12,01,0.00
2011,11,20,12,02,0.10
2011,11,20,12,03,0.10
2011,11,20,12,04,0.10
2011,11,20,12,05,0.10
2011,11,20,12,06,0.10
2011,11,20,12,07,0.10
2011,11,20,12,08,0.10
2011,11,20,12,09,0.10
2011,11,20,12,10,0.10
2011,11,20,12,11,0.10
2011,11,20,12,12,0.10
2011,11,20,12,13,0.10
2011,11,20,12,14,0.10
2011,11,20,12,15,0.00
2011,11,20,12,16,0.10
2011,11,20,12,17,0.10
2011,11,20,12,18,0.10
2011,11,20,12,19,0.10
2011,11,20,12,20,0.10
2011,11,20,12,21,0.10
2011,11,20,12,22,0.10
2011,11,20,12,23,0.10
2011,11,20,12,24,0.10
2011,11,20,12,25,0.10
2011,11,20,12,26,0.10
2011,11,20,12,27,0.10
2011,11,20,12,28,0.10
2011,11,20,12,29,0.10
2011,11,20,12,30,0.10
2011,11,20,12,31,0.10
2011,11,20,12,32,0.10
2011,11,20,12,33,0.10
2011,11,20,12,34,0.10
2011,11,20,12,35,0.20
2011,11,20,12,36,0.20
2011,11,20,12,37,0.20
2011,11,20,12,38,0.20
2011,11,20,12,39,0.20
2011,11,20,12,40,0.20
2011,11,20,12,41,0.20
2011,11,20,12,42,0.20
2011,11,20,12,43,0.20
2011,11,20,12,44,0.20
2011,11,20,12,45,0.20
2011,11,20,12,46,0.20
2011,11,20,12,47,0.20
2011,11,20,12,48,0.20
2011,11,20,12,49,0.20
2011,11,20,12,50,0.20
2011,11,20,12,51,0.20
2011,11,20,12,52,0.20
2011,11,20,12,53,0.20
2011,11,20,12,54,0.20
2011,11,20,12,55,0.20
2011,11,20,12,56,0.20
2011,11,20,12,57,0.20
2011,11,20,12,58,0.20
2011,11,20,12,59,0.20
2011,11,20,13,00,0.30
2011,11,20,13,01,0.30
2011,11,20,13,02,0.30
2011,11,20,13,03,0.30
2011,11,20,13,04,0.30
2011,11,20,13,05,0.30
2011,11,20,13,06,0.30
2011,11,20,13,07,0.30
2011,11,20,13,08,0.30
2011,11,20,13,09,0.30
2011,11,20,13,10,0.40
2011,11,20,13,11,0.40
2011,11,20,13,12,0.40
2011,11,20,13,13,0.40
2011,11,20,13,14,0.40
2011,11,20,13,15,0.40
2011,11,20,13,16,0.40
2011,11,20,13,17,0.50
2011,11,20,13,18,0.50
2011,11,20,13,19,0.50
2011,11,20,13,20,0.50
2011,11,20,13,21,0.50
2011,11,20,13,22,0.50
2011,11,20,13,23,0.50
2011,11,20,13,24,0.50
2011,11,20,13,25,0.50
2011,11,20,13,26,0.50
2011,11,20,13,27,0.50
2011,11,20,13,28,0.60
2011,11,20,13,29,0.60
2011,11,20,13,30,0.60
2011,11,20,13,31,0.60
2011,11,20,13,32,0.60
2011,11,20,13,33,0.60
2011,11,20,13,34,0.60
2011,11,20,13,35,0.60
2011,11,20,13,36,0.60
2011,11,20,13,37,0.60
2011,11,20,13,38,0.60
2011,11,20,13,39,0.60
2011,11,20,13,40,0.60
2011,11,20,13,41,0.60
2011,11,20,13,42,0.60
2011,11,20,13,43,0.60
2011,11,20,13,44,0.60
2011,11,20,13,45,0.60
2011,11,20,13,46,0.60
2011,11,20,13,47,0.60
2011,11,20,13,48,0.60
2011,11,20,13,49,0.60
2011,11,20,13,50,0.60
2011,11,20,13,51,0.60
2011,11,20,13,52,0.60
2011,11,20,13,53,0.60
2011,11,20,13,54,0.60
2011,11,20,13,55,0.60
2011,11,20,13,56,0.50
2011,11,20,13,57,0.50
2011,11,20,13,58,0.50
2011,11,20,13,59,0.50
2011,11,20,14,00,0.50
2011,11,20,14,01,0.50
2011,11,20,14,02,0.50
2011,11,20,14,03,0.50
2011,11,20,14,04,0.50
2011,11,20,14,05,0.50
2011,11,20,14,06,0.50
2011,11,20,14,07,0.50
2011,11,20,14,08,0.50
2011,11,20,14,09,0.50
2011,11,20,14,10,0.50
2011,11,20,14,11,0.50
2011,11,20,14,12,0.50
2011,11,20,14,13,0.50
2011,11,20,14,14,0.50
2011,11,20,14,15,0.50
2011,11,20,14,16,0.50
2011,11,20,14,17,0.50
2011,11,20,14,18,0.50
2011,11,20,14,19,0.50
2011,11,20,14,20,0.50
2011,11,20,14,21,0.50
2011,11,20,14,22,0.50
2011,11,20,14,23,0.60
2011,11,20,14,24,0.50
2011,11,20,14,25,0.50
2011,11,20,14,26,0.50
2011,11,20,14,27,0.50
2011,11,20,14,28,0.50
2011,11,20,14,29,0.50
2011,11,20,14,30,0.50
2011,11,20,14,31,0.50
2011,11,20,14,32,0.50
2011,11,20,14,33,0.50
2011,11,20,14,34,0.50
2011,11,20,14,35,0.50
2011,11,20,14,36,0.50
2011,11,20,14,37,0.50
2011,11,20,14,38,0.50
2011,11,20,14,39,0.50
2011,11,20,14,40,0.50
2011,11,20,14,41,0.40
2011,11,20,14,42,0.40
2011,11,20,14,43,0.40
2011,11,20,14,44,0.40
2011,11,20,14,45,0.40
2011,11,20,14,46,0.40
2011,11,20,14,47,0.40
2011,11,20,14,48,0.40
2011,11,20,14,49,0.40
2011,11,20,14,50,0.40
2011,11,20,14,51,0.40
2011,11,20,14,52,0.40
2011,11,20,14,53,0.40
2011,11,20,14,54,0.40
2011,11,20,14,55,0.40
2011,11,20,14,56,0.40
2011,11,20,14,57,0.40
2011,11,20,14,58,0.40
2011,11,20,14,59,0.40
2011,11,20,15,00,0.40
2011,11,20,15,01,0.40
2011,11,20,15,02,0.40
2011,11,20,15,03,0.40
2011,11,20,15,04,0.40
2011,11,20,15,05,0.40
2011,11,20,15,06,0.40
2011,11,20,15,07,0.40
2011,11,20,15,08,0.40
2011,11,20,15,09,0.40
2011,11,20,15,10,0.30
2011,11,20,15,11,0.30
2011,11,20,15,12,0.30
2011,11,20,15,13,0.30
2011,11,20,15,14,0.30
2011,11,20,15,15,0.30
2011,11,20,15,16,0.30
2011,11,20,15,17,0.30
2011,11,20,15,18,0.30
2011,11,20,15,19,0.30
2011,11,20,15,20,0.30
2011,11,20,15,21,0.30
2011,11,20,15,22,0.20
2011,11,20,15,23,0.20
2011,11,20,15,24,0.20
2011,11,20,15,25,0.20
2011,11,20,15,26,0.20
2011,11,20,15,27,0.20
2011,11,20,15,28,0.20
2011,11,20,15,29,0.20
2011,11,20,15,30,0.20
2011,11,20,15,31,0.20
2011,11,20,15,32,0.20
2011,11,20,15,33,0.20
2011,11,20,15,34,0.20
2011,11,20,15,35,0.20
2011,11,20,15,36,0.20
2011,11,20,15,37,0.20
2011,11,20,15,38,0.20
2011,11,20,15,39,0.10
2011,11,20,15,40,0.10
2011,11,20,15,41,0.10
2011,11,20,15,42,0.10
2011,11,20,15,43,0.10
2011,11,20,15,44,0.10
2011,11,20,15,45,0.10
2011,11,20,15,46,0.10
2011,11,20,15,47,0.10
2011,11,20,15,48,0.10
2011,11,20,15,49,0.10
2011,11,20,15,50,0.10
2011,11,20,15,51,0.10
2011,11,20,15,52,0.00
2011,11,20,15,53,0.00
2011,11,20,15,54,0.00
2011,11,20,15,55,0.00
2011,11,20,15,56,0.00
2011,11,20,15,57,0.00
2011,11,20,15,58,0.00
2011,11,20,15,59,-0.10
2011,11,20,16,00,-0.10
2011,11,20,16,01,-0.10
2011,11,20,16,02,-0.10
2011,11,20,16,03,-0.10
2011,11,20,16,04,-0.10
2011,11,20,16,05,-0.10
2011,11,20,16,06,-0.10
2011,11,20,16,07,-0.10
2011,11,20,16,08,-0.20
2011,11,20,16,09,-0.20
2011,11,20,16,10,-0.20
2011,11,20,16,11,-0.20
2011,11,20,16,12,-0.20
2011,11,20,16,13,-0.20
2011,11,20,16,14,-0.20
2011,11,20,16,15,-0.20
2011,11,20,16,16,-0.30
2011,11,20,16,17,-0.30
2011,11,20,16,18,-0.30
2011,11,20,16,19,-0.30
2011,11,20,16,20,-0.30
2011,11,20,16,21,-0.30
2011,11,20,16,22,-0.30
2011,11,20,16,23,-0.30
2011,11,20,16,24,-0.30
2011,11,20,16,25,-0.40
2011,11,20,16,26,-0.40
2011,11,20,16,27,-0.40
2011,11,20,16,28,-0.40
2011,11,20,16,29,-0.40
2011,11,20,16,30,-0.40
2011,11,20,16,31,-0.40
2011,11,20,16,32,-0.40
2011,11,20,16,33,-0.50
2011,11,20,16,34,-0.50
2011,11,20,16,35,-0.50
2011,11,20,16,36,-0.50
2011,11,20,16,37,-0.60
2011,11,20,16,38,-0.60
2011,11,20,16,39,-0.60
2011,11,20,16,40,-0.60
2011,11,20,16,41,-0.60
2011,11,20,16,42,-0.60
2011,11,20,16,43,-0.60
2011,11,20,16,44,-0.60
2011,11,20,16,45,-0.70
2011,11,20,16,46,-0.70
2011,11,20,16,47,-0.70
2011,11,20,16,48,-0.70
2011,11,20,16,49,-0.70
2011,11,20,16,50,-0.70
2011,11,20,16,51,-0.70
2011,11,20,16,52,-0.70
2011,11,20,16,53,-0.80
2011,11,20,16,54,-0.80
2011,11,20,16,55,-0.80
2011,11,20,16,56,-0.80
2011,11,20,16,57,-0.80
2011,11,20,16,58,-0.80
2011,11,20,16,59,-0.80
2011,11,20,17,00,-0.80
2011,11,20,17,01,-0.80
2011,11,20,17,02,-0.80
2011,11,20,17,03,-0.90
2011,11,20,17,04,-0.90
2011,11,20,17,05,-0.90
2011,11,20,17,06,-0.90
2011,11,20,17,07,-0.90
2011,11,20,17,08,-0.90
2011,11,20,17,09,-0.90
2011,11,20,17,10,-0.90
2011,11,20,17,11,-0.90
2011,11,20,17,12,-0.90
2011,11,20,17,13,-0.90
2011,11,20,17,14,-1.00
2011,11,20,17,15,-1.00
2011,11,20,17,16,-1.00
2011,11,20,17,17,-1.00
2011,11,20,17,18,-1.00
2011,11,20,17,19,-1.00
2011,11,20,17,20,-1.10
2011,11,20,17,21,-1.10
2011,11,20,17,22,-1.10
2011,11,20,17,23,-1.10
2011,11,20,17,24,-1.10
2011,11,20,17,25,-1.10
2011,11,20,17,26,-1.10
2011,11,20,17,27,-1.10
2011,11,20,17,28,-1.10
2011,11,20,17,29,-1.10
2011,11,20,17,30,-1.10